Terminal Aerodrome Forecast
Issued by NWS Jackson, KY

Home | Current Version | Previous Version | Text Only | Print | Product List | Glossary On
Versions: 1 2 3 4 5 6 7 8 9 10 11 12 13 14 15 16 17 18 19 20 21
219
FTUS43 KJKL 090532
TAFJKL
TAF
KJKL 090532Z 0906/1006 29006KT P6SM -SHSN OVC020
     FM091900 28004KT P6SM SCT025=

USA.gov is the U.S. government's official web portal to all federal, state and local government web resources and services.